TimeCST,TemperatureF,Dew PointF,Humidity,Sea Level PressureIn,VisibilityMPH,Wind Direction,Wind SpeedMPH,Gust SpeedMPH,PrecipitationIn,Events,Conditions,WindDirDegrees,DateUTC
12:15 AM,41.0,37.4,87,30.00,10.0,ESE,10.4,-,N/A,,Clear,110,2013-02-07 06:15:00
12:35 AM,41.0,37.4,87,30.00,10.0,SE,5.8,-,N/A,,Clear,130,2013-02-07 06:35:00
12:55 AM,41.0,37.4,87,29.99,10.0,SE,8.1,-,N/A,,Clear,130,2013-02-07 06:55:00
1:15 AM,41.0,37.4,87,29.98,10.0,SE,8.1,-,N/A,,Clear,130,2013-02-07 07:15:00
1:35 AM,41.0,37.4,87,29.99,10.0,SSE,3.5,-,N/A,,Clear,160,2013-02-07 07:35:00
1:55 AM,41.0,39.2,93,29.97,8.0,ESE,8.1,-,N/A,,Clear,120,2013-02-07 07:55:00
2:15 AM,41.0,39.2,93,29.97,8.0,ESE,8.1,-,N/A,,Clear,120,2013-02-07 08:15:00
2:35 AM,41.0,39.2,93,29.97,8.0,SE,8.1,-,N/A,,Clear,140,2013-02-07 08:35:00
2:55 AM,42.8,39.2,87,29.96,8.0,ESE,8.1,-,N/A,,Mostly Cloudy,120,2013-02-07 08:55:00
3:15 AM,42.8,39.2,87,29.95,8.0,ESE,6.9,-,N/A,,Overcast,120,2013-02-07 09:15:00
3:35 AM,42.8,39.2,87,29.95,8.0,SE,5.8,-,N/A,,Mostly Cloudy,130,2013-02-07 09:35:00
3:55 AM,42.8,39.2,87,29.94,8.0,SE,6.9,-,N/A,,Overcast,130,2013-02-07 09:55:00
4:15 AM,42.8,39.2,87,29.93,8.0,SE,6.9,-,N/A,,Overcast,130,2013-02-07 10:15:00
4:35 AM,44.6,39.2,81,29.92,9.0,ESE,6.9,-,N/A,,Overcast,120,2013-02-07 10:35:00
4:55 AM,42.8,39.2,87,29.92,9.0,ESE,10.4,-,N/A,,Overcast,120,2013-02-07 10:55:00
5:15 AM,41.0,37.4,87,29.92,10.0,ESE,4.6,-,N/A,,Overcast,120,2013-02-07 11:15:00
6:50 AM,42.8,39.2,87,29.93,10.0,ESE,5.8,-,N/A,,Overcast,120,2013-02-07 12:50:00
7:45 AM,42.8,39.2,87,29.93,10.0,ESE,5.8,-,N/A,,Overcast,110,2013-02-07 13:45:00
8:45 AM,44.6,39.2,81,29.93,10.0,ESE,6.9,-,N/A,,Overcast,110,2013-02-07 14:45:00
9:45 AM,48.2,39.2,71,29.92,10.0,ESE,5.8,-,N/A,,Mostly Cloudy,120,2013-02-07 15:45:00
10:45 AM,55.4,46.4,72,29.93,10.0,SSE,5.8,-,N/A,,Mostly Cloudy,160,2013-02-07 16:45:00
11:45 AM,57.2,46.4,67,29.90,10.0,SE,8.1,-,N/A,,Overcast,130,2013-02-07 17:45:00
1:15 PM,51.8,48.2,88,29.90,3.0,NNE,5.8,-,N/A,Rain,Rain,30,2013-02-07 19:15:00
1:50 PM,50.0,50.0,100,29.90,2.0,Calm,Calm,-,N/A,Rain,Light Rain,0,2013-02-07 19:50:00
2:45 PM,50.0,50.0,100,29.89,1.0,North,3.5,-,N/A,Rain,Light Rain,10,2013-02-07 20:45:00
3:45 PM,50.0,50.0,100,29.88,1.0,Calm,Calm,-,N/A,,Overcast,0,2013-02-07 21:45:00
4:45 PM,50.0,50.0,100,29.90,0.5,Calm,Calm,-,N/A,Fog,Fog,0,2013-02-07 22:45:00
5:45 PM,50.0,50.0,100,29.93,2.0,NNW,11.5,16.1,N/A,Rain,Light Rain,340,2013-02-07 23:45:00
6:50 PM,48.2,48.2,100,29.95,10.0,NNW,12.7,-,N/A,Rain,Light Rain,330,2013-02-08 00:50:00
7:50 PM,48.2,48.2,100,29.97,10.0,NNW,12.7,-,N/A,,Overcast,340,2013-02-08 01:50:00
7:55 PM,48.2,48.2,100,29.98,7.0,NNW,9.2,-,N/A,,Overcast,330,2013-02-08 01:55:00
8:15 PM,48.2,48.2,100,29.99,5.0,NNW,12.7,-,N/A,,Overcast,330,2013-02-08 02:15:00
8:35 PM,48.2,48.2,100,30.00,4.0,NNW,15.0,21.9,N/A,,Overcast,340,2013-02-08 02:35:00
8:45 PM,48.2,48.2,100,30.00,4.0,NNW,16.1,21.9,N/A,,Overcast,340,2013-02-08 02:45:00
8:55 PM,46.4,46.4,100,30.01,3.0,NNW,12.7,20.7,N/A,,Overcast,340,2013-02-08 02:55:00
9:15 PM,46.4,46.4,100,30.02,2.5,NNW,16.1,19.6,N/A,Rain,Light Rain,340,2013-02-08 03:15:00
9:35 PM,46.4,44.6,93,30.02,5.0,North,13.8,-,N/A,,Overcast,350,2013-02-08 03:35:00
9:55 PM,46.4,44.6,93,30.03,5.0,North,10.4,-,N/A,,Overcast,350,2013-02-08 03:55:00
10:15 PM,44.6,44.6,100,30.04,5.0,NNW,10.4,-,N/A,,Mostly Cloudy,340,2013-02-08 04:15:00
10:35 PM,44.6,41.0,87,30.04,10.0,NNW,12.7,-,N/A,,Overcast,340,2013-02-08 04:35:00
10:55 PM,44.6,41.0,87,30.05,10.0,NNW,8.1,-,N/A,,Mostly Cloudy,330,2013-02-08 04:55:00
11:15 PM,44.6,41.0,87,30.05,10.0,NNW,11.5,-,N/A,,Overcast,330,2013-02-08 05:15:00
11:55 PM,42.8,39.2,87,30.06,10.0,NNW,16.1,23.0,N/A,,Overcast,340,2013-02-08 05:55:00